Find Starlink 1625

NORAD ID: 46131 Int'l Des: 2020-057 Owner: SPXS Country: US Constellation: starlink decayed
LEOCIRCULAR
Vis

Historical Track — 9. Apr. 2026

3D-Globus wird geladen...

Über Starlink 1625

Beschreibung wird geladen...

Höhenverlauf

Loading altitude history...

Zweizeiliger Elementsatz

1 46131U 20057Q 26099.27111318 .12087427 12438-4 60993-3 0 9992
2 46131 53.0263 90.6018 0003524 265.7650 94.2995 16.42880097313173
Epoch: 9. Apr. 2026 • Age: 761 hours

Aktueller Status

Position data unavailable
Startdatum 18. Aug. 2020
Alter 5.7 years
Verglühungsdatum 9. Apr. 2026
Typ internet

Technische Details

Klassifizierung Payload
Masse 260.00 kg
Trockenmasse 248.00 kg
Gesamtmasse 260.00 kg
Länge 0.20 m
Durchmesser 2.80 m
Spannweite 9.00 m
Form Box + pan
Hersteller SPXS
Bus-Typ Starlink
Phasenstatus Unknown Transfer Status
Besitzer/Staat SPXS/US

Most Searched